This is the latest recevied weather packets stored in our database for station/object W4SNA-3. If no packets are shown the sender has not sent any weather packets the latest 10 day(s).
| Time | Temp. | Humidity | Pressure | Rain* | Wind** | Luminosity | Snow |
|---|---|---|---|---|---|---|---|
| 1778015474 | 19.44° C | 49% | 1012.7 hPa | 0 mm | - | - | - |
| 1778015174 | 19.44° C | 48% | 1012.9 hPa | 0 mm | - | - | - |
| 1778014585 | 20° C | 47% | 1012.7 hPa | 0 mm | - | - | - |
| 1778014285 | 20° C | 49% | 1012.9 hPa | 0 mm | - | - | - |
| 1778013985 | 20.56° C | 46% | 1012.8 hPa | 0 mm | - | - | - |
| 1778013685 | 20.56° C | 44% | 1012.7 hPa | 0 mm | - | - | - |
| 1778013192 | 21.67° C | 46% | 1012.8 hPa | 0 mm | - | - | - |
| 1778012897 | 21.67° C | 50% | 1013 hPa | 0 mm | - | - | - |
| 1778012593 | 21.67° C | 49% | 1012.9 hPa | 0 mm | - | - | - |
| 1778012294 | 21.11° C | 45% | 1012.9 hPa | 0 mm | - | - | - |
| 1778012066 | 21.11° C | 43% | 1012.9 hPa | 0 mm | - | - | - |
| 1778011693 | 21.67° C | 43% | 1013 hPa | 0 mm | - | - | - |
| 1778011406 | 21.11° C | 47% | 1013 hPa | 0 mm | - | - | - |
| 1778011095 | 21.11° C | 44% | 1013.1 hPa | 0 mm | - | - | - |
| 1778010793 | 21.11° C | 42% | 1013.1 hPa | 0 mm | - | - | - |
| 1778010493 | 21.67° C | 43% | 1013.4 hPa | 0 mm | - | - | - |
| 1778010195 | 21.67° C | 44% | 1013.2 hPa | 0 mm | - | - | - |
| 1778009893 | 21.67° C | 43% | 1013.4 hPa | 0 mm | - | - | - |
| 1778009593 | 22.22° C | 42% | 1013.5 hPa | 0 mm | - | - | - |
| 1778009174 | 21.67° C | 43% | 1013.6 hPa | 0 mm | - | - | - |
| 1778008874 | 21.67° C | 46% | 1013.6 hPa | 0 mm | - | - | - |
| 1778008574 | 21.11° C | 46% | 1013.7 hPa | 0 mm | - | - | - |
| 1778008244 | 21.11° C | 47% | 1013.7 hPa | 0 mm | - | - | - |
| 1778007944 | 21.11° C | 41% | 1013.7 hPa | 0 mm | - | - | - |
| 1778007644 | 21.11° C | 44% | 1013.8 hPa | 0 mm | - | - | - |
* Rain latest hour (hover to see other rain measurements)
** Current wind speed in m/s (hover to see current wind gust speed)